Location: Saint-Restitut
(44.3351°N, 4.7915°E)
Time: 03:28:10
(UTC+00:00)

Cosmos 1892 Rocket - Pass Details

Date: 03 February 2023
Orbit: 605 x 631 km, 82.5° (Epoch: 27 March)

Event Time Altitude Azimuth Distance (km) Brightness Sun altitude
Rises 18:40:39 0° 197° (SSW) 2,897 7.3 -19.5°
Reaches altitude 10° 18:42:54 10° 201° (SSW) 1,992 6.5 -19.9°
Maximum altitude 18:47:15 58° 281° (W) 730 4.2 -20.7°
Drops below altitude 10° 18:51:36 10° 1° (N) 1,991 6.1 -21.5°
Sets 18:53:52 0° 5° (N) 2,897 6.9 -21.9°
